Regional Weather Roundup
Issued by NWS State College, PA

Home | Current Version | Previous Version | Graphics & Text | Print | Product List | Glossary Off
Versions: 1 2 3 4 5 6 7 8 9 10 11 12 13 14 15 16 17 18 19 20 21 22 23 24 25 26 27 28 29 30 31 32 33 34 35 36 37 38 39 40 41 42 43 44 45 46 47 48 49 50

171
ASUS41 KCTP 181203
RWRCTP

REGIONAL WEATHER ROUNDUP
NATIONAL WEATHER SERVICE STATE COLLEGE PA
700 AM EST THU JAN 18 2018

Note: "fair" indicates few or no clouds below 12,000 feet with no
significant weather and/or obstructions to visibility.

* = STATION THAT DOES NOT REPORT PRECIPITATION /E.G. RAIN...SNOW...ETC/
    THUNDER OR FOG.

PAZ002>004-007>009-013>016-020>023-029>032-181300-
WESTERN PENNSYLVANIA

CITY           SKY/WX    TMP DP  RH WIND       PRES   REMARKS
ERIE           FAIR      12   3  67 S15       30.13S WCI  -4
MEADVILLE      FAIR       5   2  87 S8        30.11S WCI  -8
FRANKLIN*      FAIR       5   2  87 SW13      30.12S WCI -12
NEW CASTLE     FAIR       5   3  91 S5        30.19R WCI  -4
BEAVER COUNTY  CLEAR      7   3  85 S10G17    30.16  WCI  -8
BUTLER*        FAIR       6   3  87 S12       30.18F WCI  -9
PITTSBURGH INT FAIR       9   4  80 SW12      30.20F WCI  -6
PITTSBURGH     FAIR       7   2  80 S13       30.21S WCI  -9
INDIANA*       CLEAR      7   5  92 W13       30.21F WCI  -9
LATROBE        CLEAR     10   7  85 SW17G29   30.23F WCI  -7
WASHINGTON CO* FAIR       9   4  80 SW10G18   30.27S WCI  -5
$$

PAZ004>006-010>012-017>019-024>028-033>037-041-042-045-046-049>053-181300-
CENTRAL PENNSYLVANIA

CITY           SKY/WX    TMP DP  RH WIND       PRES   REMARKS
BRADFORD       FAIR       6   2  83 W8        30.00F WCI  -7
DUBOIS         CLOUDY     5   1  83 SW14      30.09S FOG     WCI -12
CLEARFIELD     CLOUDY     8   3  80 SW13      30.10F WCI  -8
JOHNSTOWN      FAIR      10   3  73 SW17      30.07F WCI  -8
ALTOONA        FAIR      17   3  54 SW13      30.10F WCI   4
STATE COLLEGE  PTCLDY    12   3  67 W9        30.11F WCI   0
WILLIAMSPORT   FAIR      13   5  70 W16G24    30.12S WCI  -3
SELINSGROVE    FAIR       9  -2  61 VRB3      30.13F
FT INDIANTOWN  CLEAR     18   3  50 W6G22     30.10R WCI  10
CAPITAL CITY   FAIR      16   4  59 W8        30.13R WCI   5
HARRISBURG     FAIR      17   5  59 NW3       30.13R
YORK           FAIR       7   3  84 CALM      30.12R
$$

PAZ038>040-043-044-047-048-054-055-060>062-067>071-181300-
EASTERN PENNSYLVANIA

CITY           SKY/WX    TMP DP  RH WIND       PRES   REMARKS
SCRANTON       FAIR       5   4  95 SW3       30.04F
MOUNT POCONO   FAIR       9   3  77 NW18G26   29.89S WCI -10
ALLENTOWN      FAIR      14   4  64 SW8       30.10R WCI   3
QUAKERTOWN*    FAIR      14   5  67 MISG      30.11R
READING        FAIR      16   5  62 NW7       30.11R WCI   6
LANCASTER      FAIR      14   6  70 W6        30.13R WCI   5
COATESVILLE    FAIR      16   5  62 NW10      30.11R WCI   3
POTTSTOWN      FAIR      13   4  67 CALM      30.14R
BLUE BELL      FAIR      14   9  79 CALM      30.15R
DOYLESTOWN     FAIR      14   5  67 W5        30.11R WCI   6
WILLOW GROVE   NOT AVBL
NORTH PHILA    FAIR      17   7  64 W3        30.15R
PHILADELPHIA   FAIR      19   6  57 W6        30.15R WCI  11
$$




USA.gov is the U.S. government's official web portal to all federal, state and local government web resources and services.